[[{"header":{"parameterUnit":"m.s-1","parameterCategory":2,"la1":30.2991,"la2":30.254,"lo1":-89.0895,"lo2":-89.0444,"dy":0.0017,"dx":0.0017,"nx":28,"ny":28,"refTime":"2023-09-10T09:00:00:Z","depth":"0","parameterNumber":2,"parameterNumberName":"U-component_of_CURRENTS"},"data":[0,0,0,0,0,0,0,0,0,0,0,0,0,0,0,0,0,0,0,0,0,0,0,0,0,0,0,0,0,0,0,0,0,0,0,0,0,0,0,0,0,0,0,0,0,0,0,0,0,0,0,0,0,0,0,0,0,0,-0.228,-0.228,0,-0.2344,-0.2345,-0.2345,-0.2361,-0.236,-0.236,-0.2359,-0.2342,-0.2342,-0.2342,0,0,0,0,0,0,0,0,0,0,0,0,0,-0.2197,-0.2198,-0.2279,-0.228,-0.2281,-0.2344,-0.2345,-0.2345,-0.2361,-0.236,-0.236,-0.2359,-0.2342,-0.2342,-0.2342,0,0,0,0,0,0,0,0,0,0,0,0,0,-0.2245,-0.2199,-0.2279,-0.2296,-0.2298,-0.2343,-0.2345,-0.2346,-0.2361,-0.236,-0.2359,-0.2359,-0.2342,-0.2342,-0.2342,-0.2356,0,0,-0.2342,-0.2342,0,0,0,0,0,0,0,0,-0.2242,-0.2248,-0.2293,-0.2295,-0.2297,-0.2343,-0.2309,-0.2345,-0.2361,-0.2337,-0.2359,-0.2358,-0.2335,-0.2336,-0.2351,-0.2355,-0.2354,-0.2342,-0.2342,-0.2342,-0.2342,0,0,0,0,0,0,0,-0.2238,-0.2245,-0.2305,-0.2294,-0.2296,-0.2309,-0.2315,-0.2317,-0.2338,-0.2339,-0.2341,-0.2347,-0.2336,-0.2351,-0.2351,-0.2354,-0.2342,-0.2342,-0.2342,-0.2342,-0.2383,-0.2384,0,0,0,0,0,0,-0.223,-0.2242,-0.2303,-0.2307,-0.2267,-0.2311,-0.2318,-0.2329,-0.234,-0.2342,-0.2348,-0.2348,-0.2352,-0.2351,-0.235,-0.237,-0.2342,-0.2342,-0.2342,-0.2382,-0.2383,-0.2385,0,0,0,0,0,0,-0.2228,-0.2235,-0.2301,-0.2275,-0.2285,-0.2313,-0.2326,-0.2331,-0.2347,-0.2347,-0.2347,-0.2359,-0.2351,-0.235,-0.2363,-0.2369,-0.2342,-0.2342,-0.2381,-0.2382,-0.2384,-0.2407,0,0,0,0,0,0,-0.2225,-0.2234,-0.2236,-0.2275,-0.2286,-0.2336,-0.2327,-0.2333,-0.2352,-0.2353,-0.2356,-0.2354,-0.235,-0.2363,-0.2363,-0.2368,-0.2342,-0.2379,-0.2382,-0.2383,-0.2405,-0.241,-0.2413,0,0,0,0,0,-0.2222,-0.2242,-0.2236,-0.2243,-0.2289,-0.2337,-0.2345,-0.2362,-0.2353,-0.2371,-0.2373,-0.2354,-0.2376,-0.2364,-0.2364,-0.2369,-0.2378,-0.2381,-0.2383,-0.2403,-0.2409,-0.2413,0,0,0,0,0,0,-0.2216,-0.2246,-0.224,-0.2269,-0.2298,-0.234,-0.2357,-0.2365,-0.2383,-0.2376,-0.237,-0.237,-0.2393,-0.2378,-0.2366,-0.239,-0.2373,-0.2376,-0.2389,-0.2394,-0.2398,-0.2339,-0.2342,0,0,0,0,0,-0.2212,-0.223,-0.2261,-0.2284,-0.2296,-0.2322,-0.2341,-0.2355,-0.2377,-0.2384,-0.239,-0.2392,-0.2405,-0.2395,-0.2415,-0.2415,-0.2392,-0.2419,-0.2423,-0.2427,-0.2381,-0.238,-0.2378,-0.2393,-0.2393,-0.2393,0,0,-0.2215,-0.2235,-0.2243,-0.2282,-0.2303,-0.2317,-0.2333,-0.2368,-0.2374,-0.2377,-0.2392,-0.2418,-0.2416,-0.2434,-0.2439,-0.2415,-0.2418,-0.243,-0.2433,-0.2383,-0.2382,-0.238,-0.2378,-0.2395,-0.2394,-0.2394,0,0,-0.223,-0.2247,-0.2258,-0.2276,-0.2307,-0.2327,-0.2335,-0.2377,-0.239,-0.2421,-0.2423,-0.2439,-0.2467,-0.2453,-0.245,-0.248,-0.2459,-0.2503,-0.2449,-0.2451,-0.2449,-0.2446,-0.2441,-0.2438,-0.2481,-0.2482,-0.2482,0,-0.222,-0.2231,-0.2273,-0.2281,-0.2282,-0.2325,-0.2324,-0.2354,-0.2396,-0.24,-0.2428,-0.2463,-0.2467,-0.2449,-0.2459,-0.2484,-0.2482,-0.2432,-0.2453,-0.245,-0.2447,-0.2442,-0.2438,-0.2483,-0.2483,-0.2483,-0.2482,0,-0.2233,-0.223,-0.2244,-0.2253,-0.2277,-0.2288,-0.2323,-0.2351,-0.238,-0.2402,-0.2432,-0.2457,-0.2459,-0.2481,-0.2472,-0.245,-0.2459,-0.2479,-0.2434,-0.2446,-0.2442,-0.2437,-0.2485,-0.2484,-0.2484,-0.2484,0,0,-0.2204,-0.2238,-0.2231,-0.2219,-0.2249,-0.2272,-0.2291,-0.2311,-0.2325,-0.2375,-0.2385,-0.2403,-0.242,-0.2413,-0.2422,-0.2401,-0.2396,-0.2415,-0.2414,-0.2395,-0.2396,-0.2336,-0.2326,-0.2429,-0.2428,-0.2427,-0.241,0,-0.2174,-0.217,-0.2201,-0.2187,-0.2177,-0.2217,-0.2237,-0.2271,-0.232,-0.2357,-0.2369,-0.2401,-0.2395,-0.241,-0.2387,-0.2414,-0.238,-0.2397,-0.2395,-0.2394,-0.2328,-0.2316,-0.2195,-0.2163,-0.2406,-0.2405,-0.2404,0,-0.2145,-0.2139,-0.2115,-0.2134,-0.2137,-0.2145,-0.2177,-0.2207,-0.2263,-0.2305,-0.2321,-0.2366,-0.2341,-0.2359,-0.2338,-0.2356,-0.2347,-0.2357,-0.2358,-0.2272,-0.2323,-0.2185,-0.2145,-0.2113,-0.2397,-0.2397,-0.2398,0,-0.2072,-0.2076,-0.2048,-0.2046,-0.2081,-0.2082,-0.2112,-0.2175,-0.2212,-0.2264,-0.2307,-0.2311,-0.2326,-0.2318,-0.233,-0.2341,-0.2322,-0.2355,-0.2279,-0.2277,-0.2148,-0.2135,-0.205,-0.2304,-0.2304,-0.2304,-0.2304,0,-0.2003,-0.198,-0.2009,-0.1984,-0.1979,-0.2028,-0.205,-0.2094,-0.2164,-0.2196,-0.226,-0.2283,-0.2316,-0.2329,-0.2325,-0.228,-0.2317,-0.2236,-0.2253,-0.2158,-0.2146,-0.2092,-0.2124,-0.2303,-0.2303,-0.2303,-0.2304,0,-0.1921,-0.1932,-0.1905,-0.1925,-0.1939,-0.1935,-0.2013,-0.2037,-0.2113,-0.2158,-0.2173,-0.2256,-0.2264,-0.2294,-0.2297,-0.2265,-0.2198,-0.2215,-0.2094,-0.2095,-0.1978,-0.2017,-0.1939,-0.1889,-0.2119,-0.2117,-0.2116,0,-0.1878,-0.185,-0.1858,-0.1844,-0.1844,-0.1864,-0.1886,-0.1985,-0.2018,-0.2129,-0.2134,-0.2185,-0.2185,-0.2183,-0.2146,-0.2114,-0.212,-0.198,-0.1953,-0.1914,-0.1972,-0.201,-0.1977,-0.1814,-0.181,-0.1807,-0.1804,0,-0.1779,-0.1784,-0.1755,-0.1737,-0.1736,-0.1765,-0.1802,-0.1834,-0.1941,-0.1987,-0.2032,-0.205,-0.2052,-0.197,-0.1941,-0.191,-0.1917,-0.1912,-0.1899,-0.1719,-0.1724,-0.1705,-0.1899,-0.1776,-0.1779,-0.1781,-0.1782,-0.1783,-0.1701,-0.1658,-0.1625,-0.1607,-0.1617,-0.163,-0.1619,-0.168,-0.1721,-0.1758,-0.1854,-0.1842,-0.1822,-0.1759,-0.1723,-0.1611,-0.1708,-0.1556,-0.1608,-0.165,-0.1575,-0.1695,-0.158,-0.1582,-0.1583,-0.1584,-0.1586,0,-0.1575,-0.1535,-0.1505,-0.1469,-0.1445,-0.1498,-0.1529,-0.1503,-0.1498,-0.1567,-0.1578,-0.1579,-0.1486,-0.1484,-0.1394,-0.1325,-0.1304,-0.131,-0.1323,-0.1305,-0.141,-0.1366,-0.1165,-0.1165,-0.1165,-0.1165,-0.1165,-0.1165,-0.1498,-0.1405,-0.1388,-0.1295,-0.1284,-0.1217,-0.1207,-0.1193,-0.1218,-0.121,-0.1236,-0.1301,-0.1312,-0.1378,-0.1258,-0.1189,-0.1181,-0.1141,-0.1206,-0.1274,-0.1301,-0.1327,-0.1289,-0.1074,-0.1075,-0.1014,-0.1014,-0.1013]},{"header":{"parameterUnit":"m.s-1","parameterCategory":2,"la1":30.2991,"la2":30.254,"lo1":-89.0895,"lo2":-89.0444,"dy":0.0017,"dx":0.0017,"nx":28,"ny":28,"refTime":"2023-09-10T09:00:00:Z","depth":"0","parameterNumber":3,"parameterNumberName":"V-component_of_CURRENTS"},"data":[0,0,0,0,0,0,0,0,0,0,0,0,0,0,0,0,0,0,0,0,0,0,0,0,0,0,0,0,0,0,0,0,0,0,0,0,0,0,0,0,0,0,0,0,0,0,0,0,0,0,0,0,0,0,0,0,0,0,-0.0297,-0.0296,0,-0.0262,-0.0261,-0.0261,-0.0255,-0.0255,-0.0255,-0.0255,-0.0212,-0.0211,-0.0209,0,0,0,0,0,0,0,0,0,0,0,0,0,-0.0368,-0.0367,-0.0297,-0.0296,-0.0295,-0.0262,-0.0261,-0.0261,-0.0255,-0.0255,-0.0255,-0.0255,-0.0212,-0.0211,-0.0209,0,0,0,0,0,0,0,0,0,0,0,0,0,-0.0338,-0.0367,-0.0297,-0.0286,-0.0284,-0.0262,-0.0261,-0.0261,-0.0255,-0.0255,-0.0255,-0.0255,-0.0213,-0.0211,-0.0209,-0.0198,0,0,-0.0204,-0.0203,0,0,0,0,0,0,0,0,-0.034,-0.0336,-0.0288,-0.0286,-0.0285,-0.026,-0.0271,-0.0239,-0.0255,-0.0269,-0.0255,-0.0255,-0.0225,-0.0222,-0.022,-0.0196,-0.0194,-0.0204,-0.0203,-0.0202,-0.0201,0,0,0,0,0,0,0,-0.0342,-0.0338,-0.0286,-0.0287,-0.0285,-0.0286,-0.0282,-0.0265,-0.0249,-0.0268,-0.0266,-0.0258,-0.0225,-0.0222,-0.0219,-0.0193,-0.0204,-0.0202,-0.0201,-0.02,-0.0113,-0.0111,0,0,0,0,0,0,-0.034,-0.0339,-0.0287,-0.0284,-0.031,-0.0284,-0.028,-0.027,-0.025,-0.0246,-0.0258,-0.0258,-0.0225,-0.0221,-0.0217,-0.0186,-0.0202,-0.02,-0.0199,-0.0114,-0.0112,-0.0111,0,0,0,0,0,0,-0.0342,-0.0336,-0.0288,-0.0309,-0.0303,-0.0283,-0.0272,-0.0269,-0.0267,-0.0242,-0.0238,-0.0258,-0.0225,-0.022,-0.0198,-0.0185,-0.0199,-0.0198,-0.0115,-0.0113,-0.0112,-0.0134,0,0,0,0,0,0,-0.0344,-0.0336,-0.0339,-0.0309,-0.0301,-0.0281,-0.0271,-0.0269,-0.026,-0.026,-0.024,-0.0236,-0.0224,-0.0201,-0.0197,-0.0183,-0.0197,-0.0117,-0.0115,-0.0112,-0.0135,-0.0134,-0.0132,0,0,0,0,0,-0.0347,-0.0361,-0.034,-0.0334,-0.0302,-0.0281,-0.0279,-0.0266,-0.026,-0.0264,-0.0242,-0.0237,-0.0182,-0.0199,-0.0194,-0.018,-0.0118,-0.0115,-0.0112,-0.0136,-0.0134,-0.0132,0,0,0,0,0,0,-0.0413,-0.036,-0.0337,-0.0338,-0.0309,-0.0279,-0.0288,-0.0267,-0.0254,-0.0256,-0.0231,-0.0225,-0.0197,-0.0182,-0.0201,-0.0143,-0.0145,-0.0141,-0.0164,-0.0162,-0.016,-0.0179,-0.0195,0,0,0,0,0,-0.042,-0.0411,-0.0358,-0.0364,-0.0347,-0.0313,-0.0306,-0.0289,-0.0267,-0.0263,-0.0243,-0.0214,-0.018,-0.0169,-0.0142,-0.012,-0.0102,-0.0101,-0.01,-0.0099,-0.0107,-0.0064,-0.0061,-0.0101,-0.0101,-0.0101,0,0,-0.0454,-0.0421,-0.042,-0.0376,-0.0356,-0.0333,-0.0311,-0.0301,-0.0284,-0.0259,-0.0244,-0.0212,-0.0171,-0.0142,-0.0127,-0.0131,-0.0074,-0.0095,-0.0095,-0.0104,-0.0061,-0.0057,-0.0054,-0.0099,-0.01,-0.01,0,0,-0.0504,-0.0477,-0.0474,-0.0441,-0.0396,-0.0368,-0.0361,-0.0321,-0.0305,-0.0279,-0.0246,-0.0208,-0.0172,-0.0135,-0.011,-0.0082,-0.0066,-0.0066,-0.0079,-0.0037,-0.0034,-0.0031,0.0002,0.0007,-0.0068,-0.0068,-0.0068,0,-0.0548,-0.0517,-0.0477,-0.0453,-0.043,-0.038,-0.0366,-0.0341,-0.0301,-0.0285,-0.028,-0.0201,-0.0167,-0.0114,-0.0099,-0.008,-0.0059,-0.0095,-0.0038,-0.0034,-0.0031,0.0002,0.0009,-0.0069,-0.0069,-0.0068,-0.0068,0,-0.0575,-0.0546,-0.0545,-0.0487,-0.0467,-0.0448,-0.0391,-0.0373,-0.0344,-0.0311,-0.0262,-0.0212,-0.0167,-0.0137,-0.0111,-0.006,-0.0053,-0.0042,-0.0051,-0.0029,0.0005,0.0013,-0.007,-0.0069,-0.0069,-0.0069,0,0,-0.068,-0.058,-0.0578,-0.0544,-0.0473,-0.0463,-0.043,-0.0382,-0.0372,-0.0319,-0.0297,-0.0217,-0.019,-0.0159,-0.0112,-0.007,-0.0019,-0.0051,-0.0048,-0.0034,0.0066,0.0106,0.0118,-0.0002,-0.0001,-0.0,0.0081,0,-0.0706,-0.0656,-0.0607,-0.0578,-0.0541,-0.0486,-0.0467,-0.0424,-0.0386,-0.0357,-0.0282,-0.0246,-0.0196,-0.0178,-0.0123,-0.0046,-0.0001,-0.0043,0.0055,0.0058,0.0078,0.0127,0.0155,0.0232,0.0088,0.0089,0.009,0,-0.0739,-0.069,-0.0648,-0.0588,-0.0576,-0.0563,-0.0525,-0.0502,-0.0441,-0.0415,-0.0358,-0.0306,-0.0221,-0.0194,-0.0055,-0.0086,-0.0014,0.0044,0.0049,0.0096,0.0112,0.0189,0.0251,0.0395,0.0102,0.0101,0.01,0,-0.0798,-0.073,-0.0693,-0.0666,-0.0592,-0.0587,-0.0568,-0.0521,-0.0512,-0.0452,-0.0442,-0.0339,-0.0294,-0.0185,-0.0051,-0.0056,0.0092,0.01,0.0204,0.0207,0.0254,0.026,0.0454,0.0189,0.0189,0.0189,0.0188,0,-0.0826,-0.0804,-0.0717,-0.0692,-0.0689,-0.0634,-0.0643,-0.0613,-0.0578,-0.0575,-0.0479,-0.0449,-0.0291,-0.0185,-0.0065,0.01,0.0086,0.0211,0.0237,0.025,0.0254,0.04,0.0442,0.0192,0.0191,0.019,0.019,0,-0.0883,-0.0817,-0.0776,-0.0708,-0.0705,-0.0706,-0.0699,-0.0707,-0.0665,-0.0656,-0.0641,-0.0525,-0.0376,-0.0212,-0.0031,0.0079,0.032,0.0285,0.0288,0.0314,0.0544,0.0583,0.0764,0.0855,0.0415,0.0417,0.0418,0,-0.0903,-0.0874,-0.0807,-0.0803,-0.0774,-0.0773,-0.0786,-0.0756,-0.0761,-0.0701,-0.0698,-0.056,-0.0447,-0.0156,0.0066,0.0293,0.0396,0.0439,0.0444,0.0577,0.064,0.0659,0.0724,0.05,0.0502,0.0503,0.0504,0,-0.0932,-0.0899,-0.0854,-0.0849,-0.0855,-0.0873,-0.0881,-0.0899,-0.0866,-0.0837,-0.0766,-0.0669,-0.0379,-0.0096,0.0202,0.0338,0.0549,0.0478,0.0624,0.0735,0.076,0.0853,0.0417,0.0518,0.0517,0.0516,0.0515,0.0515,-0.0958,-0.0932,-0.0877,-0.0886,-0.0908,-0.0953,-0.0971,-0.0971,-0.0969,-0.0904,-0.0811,-0.0629,-0.0221,0.0218,0.0377,0.0724,0.0682,0.0824,0.0863,0.0873,0.0964,0.0556,0.0681,0.0681,0.068,0.068,0.068,0,-0.0959,-0.0925,-0.093,-0.0927,-0.0981,-0.0982,-0.102,-0.1018,-0.1004,-0.0901,-0.0789,-0.0348,0.0054,0.0431,0.0908,0.1096,0.114,0.1189,0.1233,0.1285,0.0942,0.095,0.113,0.113,0.113,0.113,0.1129,0.1129,-0.0949,-0.0916,-0.091,-0.0981,-0.1008,-0.1053,-0.1069,-0.1049,-0.0971,-0.0757,-0.0515,-0.0308,0.0237,0.098,0.1414,0.1452,0.162,0.159,0.169,0.1459,0.1428,0.1398,0.1422,0.1697,0.1697,0.203,0.2033,0.2035]}],[{"header":{"parameterUnit":"m.s-1","parameterCategory":2,"la1":30.2991,"la2":30.254,"lo1":-89.0895,"lo2":-89.0444,"dy":0.0017,"dx":0.0017,"nx":28,"ny":28,"refTime":"2023-09-10T09:00:00:Z","depth":"2","parameterNumber":2,"parameterNumberName":"U-component_of_CURRENTS"},"data":[0,0,0,0,0,0,0,0,0,0,0,0,0,0,0,0,0,0,0,0,0,0,0,0,0,0,0,0,0,0,0,0,0,0,0,0,0,0,0,0,0,0,0,0,0,0,0,0,0,0,0,0,0,0,0,0,0,0,-0.1836,-0.1836,0,-0.1908,-0.1909,-0.1909,-0.1905,-0.1904,-0.1903,-0.1902,-0.2008,-0.2012,-0.2016,0,0,0,0,0,0,0,0,0,0,0,0,0,-0.1761,-0.1762,-0.1835,-0.1836,-0.1837,-0.1908,-0.1909,-0.191,-0.1905,-0.1904,-0.1903,-0.1902,-0.2007,-0.2011,-0.2016,0,0,0,0,0,0,0,0,0,0,0,0,0,-0.1809,-0.1762,-0.1835,-0.1844,-0.1845,-0.1907,-0.1909,-0.191,-0.1906,-0.1904,-0.1902,-0.1901,-0.2005,-0.2011,-0.2017,-0.2083,0,0,-0.2034,-0.2036,0,0,0,0,0,0,0,0,-0.1806,-0.1812,-0.1842,-0.1843,-0.1845,-0.1896,-0.1921,-0.1969,-0.1906,-0.1883,-0.1902,-0.19,-0.1975,-0.1983,-0.1999,-0.2088,-0.2092,-0.2034,-0.2038,-0.204,-0.2042,0,0,0,0,0,0,0,-0.1803,-0.1809,-0.1864,-0.1843,-0.1845,-0.1867,-0.1872,-0.1931,-0.1937,-0.1884,-0.1884,-0.1893,-0.1976,-0.1994,-0.2002,-0.2094,-0.2034,-0.2039,-0.2043,-0.2045,-0.218,-0.218,0,0,0,0,0,0,-0.1793,-0.1806,-0.1862,-0.1866,-0.1822,-0.1869,-0.1874,-0.1881,-0.1936,-0.1942,-0.1894,-0.1893,-0.1985,-0.1995,-0.2006,-0.2069,-0.204,-0.2046,-0.2049,-0.218,-0.218,-0.218,0,0,0,0,0,0,-0.1791,-0.1797,-0.1859,-0.1838,-0.1847,-0.1872,-0.188,-0.1883,-0.1907,-0.1943,-0.195,-0.1914,-0.1984,-0.1998,-0.2051,-0.2074,-0.2048,-0.2053,-0.218,-0.218,-0.218,-0.2209,0,0,0,0,0,0,-0.1788,-0.1796,-0.1802,-0.1837,-0.1848,-0.1905,-0.1881,-0.1886,-0.1914,-0.1913,-0.1963,-0.197,-0.1984,-0.2043,-0.2057,-0.2081,-0.2058,-0.2179,-0.218,-0.218,-0.2207,-0.221,-0.2212,0,0,0,0,0,-0.1786,-0.1801,-0.1802,-0.1809,-0.1854,-0.1906,-0.1915,-0.1927,-0.1917,-0.194,-0.1957,-0.1969,-0.2054,-0.2049,-0.2065,-0.2091,-0.2179,-0.218,-0.218,-0.2206,-0.2209,-0.2212,0,0,0,0,0,0,-0.1773,-0.1804,-0.1804,-0.1828,-0.1867,-0.1906,-0.1925,-0.1939,-0.1973,-0.1969,-0.1991,-0.2002,-0.206,-0.2068,-0.2061,-0.2125,-0.2112,-0.2116,-0.2126,-0.213,-0.2132,-0.2088,-0.2063,0,0,0,0,0,-0.1773,-0.1784,-0.1829,-0.1843,-0.1867,-0.19,-0.1923,-0.1939,-0.1971,-0.1984,-0.2019,-0.2043,-0.2077,-0.2094,-0.2136,-0.2183,-0.2167,-0.2201,-0.2203,-0.2205,-0.2177,-0.218,-0.2179,-0.2181,-0.2181,-0.2181,0,0,-0.1781,-0.1786,-0.1801,-0.184,-0.1867,-0.1905,-0.191,-0.1954,-0.1975,-0.1995,-0.2038,-0.2074,-0.2094,-0.214,-0.2164,-0.2147,-0.2199,-0.2206,-0.2207,-0.2177,-0.218,-0.218,-0.2179,-0.2182,-0.2182,-0.2182,0,0,-0.1789,-0.1801,-0.1819,-0.185,-0.1892,-0.1917,-0.1933,-0.1991,-0.2007,-0.2064,-0.207,-0.2103,-0.2173,-0.2174,-0.2184,-0.2222,-0.2224,-0.2245,-0.2213,-0.2218,-0.2217,-0.2217,-0.2209,-0.2208,-0.223,-0.223,-0.223,0,-0.1785,-0.1806,-0.1837,-0.1858,-0.1877,-0.1921,-0.1954,-0.1986,-0.2051,-0.2065,-0.2077,-0.2149,-0.2177,-0.2196,-0.2196,-0.2228,-0.2225,-0.2208,-0.2221,-0.222,-0.2218,-0.221,-0.2208,-0.2231,-0.2231,-0.2231,-0.2231,0,-0.181,-0.1828,-0.1842,-0.1869,-0.1907,-0.194,-0.199,-0.203,-0.2058,-0.2086,-0.2137,-0.2171,-0.2195,-0.2219,-0.2218,-0.2225,-0.2225,-0.2239,-0.2214,-0.222,-0.2211,-0.2209,-0.2234,-0.2233,-0.2233,-0.2232,0,0,-0.1774,-0.1844,-0.1843,-0.1859,-0.1911,-0.1944,-0.1984,-0.2031,-0.2054,-0.211,-0.2132,-0.2173,-0.2187,-0.2193,-0.2211,-0.22,-0.22,-0.2205,-0.2205,-0.2196,-0.2201,-0.2131,-0.2121,-0.2224,-0.2224,-0.2223,-0.2203,0,-0.177,-0.1808,-0.1845,-0.1883,-0.1911,-0.1957,-0.1988,-0.2037,-0.2082,-0.2124,-0.2142,-0.2182,-0.2179,-0.2199,-0.2188,-0.2215,-0.2191,-0.2203,-0.2195,-0.2194,-0.2131,-0.2115,-0.1948,-0.1909,-0.22,-0.22,-0.22,0,-0.1768,-0.1786,-0.1827,-0.1881,-0.19,-0.1926,-0.1976,-0.2016,-0.2075,-0.2111,-0.2138,-0.2174,-0.2174,-0.2176,-0.2172,-0.2185,-0.2173,-0.2179,-0.2179,-0.209,-0.2117,-0.1948,-0.1893,-0.2195,-0.2195,-0.2195,-0.2196,0,-0.1711,-0.1769,-0.1793,-0.181,-0.1885,-0.19,-0.1936,-0.2002,-0.2039,-0.2095,-0.2131,-0.2153,-0.2166,-0.2163,-0.2167,-0.2176,-0.2162,-0.2185,-0.21,-0.2096,-0.1935,-0.1916,-0.2149,-0.2149,-0.2149,-0.215,-0.215,0,-0.1672,-0.1689,-0.1766,-0.1772,-0.1801,-0.1863,-0.1899,-0.1946,-0.2013,-0.2044,-0.2106,-0.2127,-0.2162,-0.2172,-0.2166,-0.2117,-0.2159,-0.207,-0.2077,-0.1941,-0.1925,-0.2155,-0.2156,-0.2149,-0.2149,-0.2149,-0.2149,0,-0.1609,-0.1659,-0.1687,-0.1754,-0.1775,-0.1791,-0.187,-0.1895,-0.1969,-0.2011,-0.2027,-0.2104,-0.2106,-0.2133,-0.2134,-0.2102,-0.2081,-0.2047,-0.1878,-0.1863,-0.2012,-0.2014,-0.1948,-0.1945,-0.1942,-0.194,-0.1939,0,-0.1578,-0.1593,-0.1659,-0.1666,-0.1689,-0.173,-0.1754,-0.185,-0.1881,-0.1982,-0.1987,-0.2029,-0.2021,-0.2009,-0.1967,-0.1929,-0.2004,-0.1753,-0.1722,-0.1972,-0.1987,-0.1993,-0.1999,-0.153,-0.1525,-0.1521,-0.1518,0,-0.1514,-0.1545,-0.1559,-0.158,-0.1599,-0.1638,-0.1679,-0.1709,-0.1807,-0.1847,-0.1879,-0.1886,-0.1873,-0.1758,-0.1722,-0.1682,-0.1751,-0.1668,-0.1968,-0.1609,-0.1577,-0.1592,-0.1612,-0.1482,-0.1486,-0.1488,-0.149,-0.1492,-0.1454,-0.1444,-0.1463,-0.1475,-0.15,-0.1515,-0.1506,-0.1561,-0.1594,-0.1617,-0.1699,-0.1654,-0.1652,-0.1505,-0.1433,-0.1385,-0.1513,-0.1446,-0.1459,-0.1476,-0.1433,-0.1399,-0.1261,-0.1264,-0.1265,-0.1267,-0.1269,0,-0.1358,-0.1356,-0.1358,-0.1361,-0.1344,-0.1397,-0.1425,-0.1397,-0.1381,-0.1421,-0.1415,-0.1282,-0.1199,-0.1214,-0.1074,-0.1049,-0.1045,-0.1008,-0.0999,-0.1035,-0.1067,-0.1004,-0.0718,-0.0717,-0.0715,-0.0714,0,0,-0.131,-0.1261,-0.1259,-0.1195,-0.1197,-0.1139,-0.1128,-0.1105,-0.1108,-0.1064,-0.1041,-0.1121,-0.1166,-0.0944,-0.0888,-0.0778,-0.0899,-0.0734,-0.1173,-0.1198,-0.1228,-0.1313,-0.1256,0,0,0,0,0]},{"header":{"parameterUnit":"m.s-1","parameterCategory":2,"la1":30.2991,"la2":30.254,"lo1":-89.0895,"lo2":-89.0444,"dy":0.0017,"dx":0.0017,"nx":28,"ny":28,"refTime":"2023-09-10T09:00:00:Z","depth":"2","parameterNumber":3,"parameterNumberName":"V-component_of_CURRENTS"},"data":[0,0,0,0,0,0,0,0,0,0,0,0,0,0,0,0,0,0,0,0,0,0,0,0,0,0,0,0,0,0,0,0,0,0,0,0,0,0,0,0,0,0,0,0,0,0,0,0,0,0,0,0,0,0,0,0,0,0,0.0011,0.0012,0,0.0066,0.0067,0.0067,0.0104,0.0104,0.0104,0.0105,0.0182,0.0184,0.0186,0,0,0,0,0,0,0,0,0,0,0,0,0,-0.0045,-0.0045,0.0011,0.0012,0.0013,0.0066,0.0067,0.0067,0.0104,0.0104,0.0105,0.0105,0.0182,0.0184,0.0186,0,0,0,0,0,0,0,0,0,0,0,0,0,-0.0009,-0.0044,0.0011,0.0037,0.004,0.0066,0.0067,0.0068,0.0104,0.0104,0.0105,0.0105,0.0181,0.0184,0.0186,0.0196,0,0,0.0195,0.0196,0,0,0,0,0,0,0,0,-0.0011,-0.0007,0.0033,0.0035,0.0039,0.0079,0.0075,0.0112,0.0104,0.008,0.0105,0.0105,0.0149,0.0155,0.0164,0.0199,0.0203,0.0195,0.0197,0.0198,0.0199,0,0,0,0,0,0,0,-0.0014,-0.0009,0.0033,0.0033,0.0037,0.0052,0.0057,0.0082,0.0112,0.0082,0.0085,0.0091,0.0151,0.0161,0.0166,0.0204,0.0195,0.0197,0.0199,0.02,0.0269,0.0269,0,0,0,0,0,0,-0.0021,-0.0011,0.0031,0.0035,0.0014,0.0052,0.0059,0.0065,0.0112,0.0119,0.009,0.0092,0.0156,0.0163,0.0169,0.0177,0.0198,0.02,0.0202,0.0268,0.0269,0.0269,0,0,0,0,0,0,-0.0023,-0.0018,0.0029,0.0013,0.002,0.0053,0.006,0.0066,0.007,0.0118,0.0125,0.0087,0.0157,0.0165,0.0185,0.0181,0.0202,0.0204,0.0268,0.0268,0.0269,0.0198,0,0,0,0,0,0,-0.0025,-0.0019,-0.0023,0.0012,0.0021,0.0034,0.006,0.0067,0.0074,0.0077,0.0118,0.0126,0.0158,0.0181,0.0188,0.0185,0.0206,0.0268,0.0268,0.0269,0.02,0.0196,0.0192,0,0,0,0,0,-0.0027,-0.0033,-0.0023,-0.0018,0.0016,0.0033,0.0039,0.0064,0.0073,0.0069,0.0099,0.0124,0.0189,0.0183,0.0191,0.0189,0.0268,0.0268,0.0269,0.0202,0.0197,0.0192,0,0,0,0,0,0,-0.0059,-0.0029,-0.0018,-0.0014,0.0003,0.0039,0.0037,0.0054,0.0075,0.0076,0.012,0.013,0.0149,0.0179,0.0172,0.0212,0.0235,0.0237,0.0181,0.0177,0.0173,0.0162,0.0209,0,0,0,0,0,-0.0068,-0.0062,-0.0035,-0.0031,-0.003,0.0,0.0008,0.0025,0.0051,0.0059,0.009,0.0126,0.0159,0.0173,0.0206,0.0221,0.0252,0.0229,0.0225,0.0221,0.0219,0.0259,0.0258,0.027,0.027,0.027,0,0,-0.0088,-0.006,-0.0064,-0.0037,-0.0023,-0.0028,0.0006,0.0011,0.0015,0.0065,0.0074,0.011,0.016,0.018,0.0192,0.0203,0.0234,0.0221,0.0218,0.0218,0.0259,0.0258,0.0257,0.027,0.027,0.027,0,0,-0.0116,-0.0094,-0.0107,-0.0094,-0.0073,-0.0053,-0.0056,-0.003,-0.0015,-0.0,0.0041,0.0071,0.0115,0.0151,0.0176,0.0169,0.0211,0.0183,0.0152,0.019,0.0189,0.0189,0.0219,0.0222,0.0181,0.018,0.018,0,-0.0137,-0.0141,-0.011,-0.0115,-0.011,-0.007,-0.0089,-0.0067,-0.0034,-0.002,-0.0007,0.0065,0.0102,0.0138,0.0138,0.0159,0.0186,0.0161,0.0183,0.0183,0.0184,0.0216,0.022,0.0177,0.0178,0.0178,0.0178,0,-0.018,-0.0182,-0.0188,-0.0178,-0.0172,-0.0176,-0.0146,-0.0134,-0.0109,-0.008,-0.0044,0.0009,0.0054,0.0072,0.0103,0.013,0.0149,0.017,0.0189,0.0178,0.0213,0.0218,0.0172,0.0174,0.0175,0.0175,0,0,-0.0221,-0.0221,-0.0223,-0.0232,-0.0205,-0.0205,-0.0197,-0.0176,-0.017,-0.0127,-0.0111,-0.005,-0.0016,0.0016,0.0061,0.0095,0.0121,0.0129,0.0133,0.0149,0.0201,0.0234,0.0244,0.0145,0.0145,0.0146,0.022,0,-0.0262,-0.0295,-0.0276,-0.0305,-0.0324,-0.0281,-0.0276,-0.0248,-0.0211,-0.0185,-0.0116,-0.0084,-0.0037,-0.0019,0.0023,0.0103,0.0134,0.0099,0.022,0.0223,0.0245,0.0251,0.0228,0.0294,0.0225,0.0226,0.0227,0,-0.0314,-0.0319,-0.0367,-0.0366,-0.0372,-0.0377,-0.0357,-0.0347,-0.029,-0.0262,-0.0211,-0.0154,-0.0087,-0.0053,0.007,0.0046,0.0114,0.0172,0.0177,0.0237,0.0267,0.0297,0.0307,0.0237,0.0236,0.0235,0.0235,0,-0.0364,-0.0382,-0.042,-0.0421,-0.0417,-0.042,-0.0412,-0.0372,-0.0364,-0.0308,-0.0293,-0.0203,-0.0157,-0.0058,0.0071,0.007,0.0204,0.0219,0.0311,0.0314,0.0334,0.0338,0.0294,0.0294,0.0293,0.0293,0.0293,0,-0.041,-0.0439,-0.0447,-0.0465,-0.0497,-0.0473,-0.0491,-0.0467,-0.0432,-0.0425,-0.0336,-0.0304,-0.0156,-0.0056,0.0055,0.0206,0.0195,0.0309,0.0338,0.0309,0.031,0.0294,0.0293,0.0296,0.0295,0.0295,0.0294,0,-0.0467,-0.0473,-0.0514,-0.0521,-0.0526,-0.0549,-0.0548,-0.0556,-0.0514,-0.05,-0.0485,-0.0373,-0.0234,-0.0082,0.0087,0.0186,0.0324,0.0374,0.0329,0.0352,0.0409,0.0404,0.0484,0.0486,0.0488,0.0489,0.049,0,-0.0486,-0.0532,-0.0565,-0.0587,-0.0591,-0.0615,-0.063,-0.0603,-0.0604,-0.0538,-0.0532,-0.0401,-0.0292,-0.0026,0.0166,0.0368,0.0367,0.0457,0.0455,0.041,0.043,0.0422,0.0415,0.045,0.0451,0.0452,0.0452,0,-0.0542,-0.0574,-0.0601,-0.065,-0.0676,-0.0708,-0.072,-0.0733,-0.0695,-0.0661,-0.0585,-0.049,-0.0232,-0.0,0.026,0.0373,0.0426,0.0476,0.0448,0.0406,0.0384,0.0402,0.0395,0.0457,0.0457,0.0456,0.0456,0.0456,-0.0579,-0.0613,-0.0661,-0.0706,-0.0743,-0.0784,-0.0802,-0.0796,-0.0786,-0.0711,-0.062,-0.0449,-0.0228,0.0155,0.0335,0.0498,0.0495,0.0541,0.0536,0.0531,0.0515,0.0497,0.0588,0.0588,0.0588,0.0588,0.0588,0,-0.0614,-0.0661,-0.0711,-0.0762,-0.0815,-0.0819,-0.0848,-0.084,-0.0814,-0.0709,-0.0596,-0.0345,-0.0075,0.015,0.0416,0.0576,0.0553,0.0598,0.0538,0.0533,0.0528,0.0508,0.0581,0.0582,0.0582,0.0582,0,0,-0.064,-0.0692,-0.0717,-0.0806,-0.0845,-0.0886,-0.0898,-0.0866,-0.0788,-0.0677,-0.0538,-0.0333,-0.0059,0.0132,0.033,0.0464,0.0454,0.0473,0.0463,0.0364,0.0357,0.0481,0.0444,0,0,0,0,0]}],[{"header":{"parameterUnit":"m.s-1","parameterCategory":2,"la1":30.2991,"la2":30.254,"lo1":-89.0895,"lo2":-89.0444,"dy":0.0017,"dx":0.0017,"nx":28,"ny":28,"refTime":"2023-09-10T09:00:00:Z","depth":"4","parameterNumber":2,"parameterNumberName":"U-component_of_CURRENTS"},"data":[0,0,0,0,0,0,0,0,0,0,0,0,0,0,0,0,0,0,0,0,0,0,0,0,0,0,0,0,0,0,0,0,0,0,0,0,0,0,0,0,0,0,0,0,0,0,0,0,0,0,0,0,0,0,0,0,0,0,-0.1153,-0.1153,0,-0.1149,-0.1149,-0.1148,-0.1149,-0.1149,-0.115,-0.115,-0.1142,-0.1141,-0.114,0,0,0,0,0,0,0,0,0,0,0,0,0,-0.1068,-0.1069,-0.1153,-0.1153,-0.1153,-0.1149,-0.1149,-0.1148,-0.1149,-0.1149,-0.115,-0.115,-0.1142,-0.1141,-0.114,0,0,0,0,0,0,0,0,0,0,0,0,0,-0.1084,-0.107,-0.1153,-0.1156,-0.1157,-0.1149,-0.1149,-0.1148,-0.1149,-0.1149,-0.115,-0.1151,-0.1142,-0.1141,-0.114,-0.112,0,0,-0.1137,-0.1137,0,0,0,0,0,0,0,0,-0.1084,-0.1087,-0.1155,-0.1156,-0.1157,-0.1154,-0.1116,-0.114,-0.1148,-0.1147,-0.115,-0.1151,-0.1148,-0.1146,-0.1138,-0.112,-0.112,-0.1137,-0.1137,-0.1136,-0.1136,0,0,0,0,0,0,0,-0.1083,-0.1087,-0.1147,-0.1156,-0.1157,-0.1127,-0.113,-0.112,-0.114,-0.1147,-0.1148,-0.1155,-0.1147,-0.1139,-0.1138,-0.1119,-0.1137,-0.1136,-0.1136,-0.1135,-0.1177,-0.1178,0,0,0,0,0,0,-0.1096,-0.1086,-0.1147,-0.1147,-0.1126,-0.1129,-0.1132,-0.1151,-0.114,-0.1141,-0.1154,-0.1155,-0.114,-0.1139,-0.1138,-0.1212,-0.1136,-0.1135,-0.1135,-0.1175,-0.1177,-0.1179,0,0,0,0,0,0,-0.1095,-0.1102,-0.1147,-0.1119,-0.1123,-0.113,-0.115,-0.115,-0.1164,-0.1146,-0.1146,-0.1171,-0.1141,-0.1139,-0.1158,-0.1208,-0.1135,-0.1134,-0.1173,-0.1176,-0.1178,-0.1297,0,0,0,0,0,0,-0.1092,-0.1102,-0.1121,-0.1121,-0.1126,-0.1166,-0.115,-0.115,-0.1167,-0.1169,-0.116,-0.1159,-0.1141,-0.116,-0.1158,-0.1205,-0.1133,-0.1171,-0.1174,-0.1177,-0.1291,-0.1303,-0.1314,0,0,0,0,0,-0.1089,-0.1108,-0.1122,-0.113,-0.1152,-0.1168,-0.1167,-0.117,-0.1168,-0.1182,-0.1182,-0.116,-0.1179,-0.1161,-0.1157,-0.1206,-0.1169,-0.1173,-0.1177,-0.1286,-0.1301,-0.1313,0,0,0,0,0,0,-0.1071,-0.111,-0.1126,-0.1154,-0.1175,-0.117,-0.118,-0.1183,-0.1191,-0.1197,-0.1176,-0.1175,-0.1208,-0.1187,-0.1168,-0.1226,-0.1173,-0.1176,-0.1257,-0.127,-0.1282,-0.1296,-0.1132,0,0,0,0,0,-0.1081,-0.111,-0.1139,-0.1161,-0.1177,-0.1184,-0.1191,-0.12,-0.1205,-0.121,-0.1208,-0.1208,-0.1215,-0.1229,-0.1221,-0.1252,-0.1228,-0.1282,-0.1294,-0.1304,-0.1313,-0.1325,-0.1339,-0.1191,-0.1191,-0.1191,0,0,-0.1079,-0.1103,-0.1119,-0.116,-0.1173,-0.1212,-0.1189,-0.1214,-0.1251,-0.1207,-0.1251,-0.1241,-0.1229,-0.1267,-0.1281,-0.1262,-0.1332,-0.1309,-0.1317,-0.1321,-0.1331,-0.1345,-0.1358,-0.1194,-0.1194,-0.1193,0,0,-0.1084,-0.1116,-0.1146,-0.1177,-0.1217,-0.1231,-0.1249,-0.127,-0.1287,-0.1324,-0.1308,-0.134,-0.1338,-0.1359,-0.1363,-0.1434,-0.1383,-0.1424,-0.1508,-0.152,-0.1532,-0.1543,-0.1528,-0.1536,-0.1442,-0.1442,-0.1442,0,-0.1083,-0.1132,-0.1153,-0.1197,-0.1231,-0.1251,-0.1298,-0.1321,-0.1347,-0.1365,-0.1357,-0.1387,-0.1391,-0.1446,-0.1481,-0.1465,-0.144,-0.1459,-0.1536,-0.1546,-0.1555,-0.1536,-0.1544,-0.1448,-0.1447,-0.1447,-0.1446,0,-0.1115,-0.1167,-0.1187,-0.1262,-0.1298,-0.1339,-0.1388,-0.1423,-0.1447,-0.1466,-0.1517,-0.1524,-0.1541,-0.156,-0.1548,-0.1618,-0.1569,-0.1541,-0.1504,-0.1577,-0.1552,-0.1558,-0.1457,-0.1455,-0.1453,-0.1451,0,0,-0.1081,-0.1192,-0.1202,-0.1255,-0.1342,-0.1371,-0.1447,-0.1511,-0.1549,-0.1591,-0.1636,-0.1691,-0.1684,-0.1689,-0.1683,-0.1719,-0.1776,-0.1667,-0.1665,-0.1656,-0.1775,-0.1633,-0.1624,-0.1752,-0.1754,-0.1755,-0.1732,0,-0.1106,-0.12,-0.1251,-0.1347,-0.1404,-0.1461,-0.1521,-0.1582,-0.1623,-0.1668,-0.1706,-0.1736,-0.1735,-0.1744,-0.1787,-0.1765,-0.1796,-0.1783,-0.1701,-0.1699,-0.1567,-0.1629,-0.1761,-0.1736,-0.1737,-0.1738,-0.1739,0,-0.112,-0.119,-0.1289,-0.1399,-0.1427,-0.1486,-0.1581,-0.1634,-0.1707,-0.1733,-0.1785,-0.179,-0.186,-0.1835,-0.187,-0.1852,-0.1831,-0.182,-0.1818,-0.1647,-0.1567,-0.1646,-0.1748,-0.1747,-0.1747,-0.1746,-0.1746,0,-0.1077,-0.121,-0.1292,-0.1336,-0.1464,-0.1512,-0.1569,-0.1652,-0.1691,-0.1768,-0.1792,-0.1857,-0.1872,-0.1886,-0.1875,-0.1869,-0.1881,-0.1862,-0.1717,-0.1706,-0.1788,-0.1776,-0.1889,-0.1889,-0.1889,-0.1889,-0.1889,0,-0.1071,-0.1137,-0.1283,-0.1325,-0.1414,-0.1499,-0.1571,-0.1632,-0.1705,-0.1737,-0.1812,-0.1829,-0.1884,-0.1892,-0.1885,-0.1808,-0.1887,-0.1738,-0.1698,-0.1836,-0.1831,-0.1791,-0.178,-0.1888,-0.1888,-0.1888,-0.1888,0,-0.1007,-0.1102,-0.1206,-0.1352,-0.1396,-0.1455,-0.1564,-0.1596,-0.1678,-0.1719,-0.1741,-0.1812,-0.1807,-0.1838,-0.1842,-0.1788,-0.1752,-0.1703,-0.184,-0.1806,-0.1566,-0.1562,-0.1543,-0.1538,-0.1534,-0.153,-0.1527,0,-0.0982,-0.1029,-0.1205,-0.1255,-0.1324,-0.1418,-0.146,-0.1566,-0.1593,-0.1684,-0.1682,-0.1717,-0.1743,-0.1638,-0.1687,-0.1651,-0.1632,-0.1603,-0.161,-0.1572,-0.1535,-0.1538,-0.1539,-0.1521,-0.1519,-0.1518,-0.1517,0,-0.0931,-0.1003,-0.1092,-0.1191,-0.1262,-0.1332,-0.14,-0.1414,-0.1506,-0.1598,-0.1571,-0.1561,-0.1542,-0.1537,-0.1509,-0.1493,-0.1623,-0.1558,-0.1567,-0.1573,-0.1544,-0.1512,-0.1519,-0.1502,-0.1505,-0.1506,-0.1507,0,-0.0889,-0.0942,-0.1045,-0.1121,-0.1196,-0.1214,-0.1275,-0.1294,-0.1336,-0.1437,-0.1417,-0.1456,-0.1514,-0.1451,-0.1436,-0.1397,-0.1379,-0.1342,-0.1362,-0.1379,-0.1336,-0.1276,-0.1123,0,0,0,0,0,-0.0844,-0.0884,-0.0952,-0.1036,-0.1091,-0.1124,-0.1213,-0.1267,-0.1363,-0.1299,-0.1354,-0.1328,-0.129,-0.1318,-0.1242,-0.1365,-0.1392,-0.1272,-0.1362,-0.142,-0.1437,-0.1402,0,0,0,0,0,0,-0.0814,-0.0885,-0.0927,-0.0924,-0.094,-0.0987,-0.1035,-0.1107,-0.1084,-0.1182,-0.1167,-0.1234,-0.1219,-0.1299,-0.1206,-0.1213,-0.124,-0.1303,-0.1299,-0.141,-0.1426,-0.144,-0.141,0,0,0,0,0]},{"header":{"parameterUnit":"m.s-1","parameterCategory":2,"la1":30.2991,"la2":30.254,"lo1":-89.0895,"lo2":-89.0444,"dy":0.0017,"dx":0.0017,"nx":28,"ny":28,"refTime":"2023-09-10T09:00:00:Z","depth":"4","parameterNumber":3,"parameterNumberName":"V-component_of_CURRENTS"},"data":[0,0,0,0,0,0,0,0,0,0,0,0,0,0,0,0,0,0,0,0,0,0,0,0,0,0,0,0,0,0,0,0,0,0,0,0,0,0,0,0,0,0,0,0,0,0,0,0,0,0,0,0,0,0,0,0,0,0,0.0083,0.0083,0,0.0147,0.0147,0.0148,0.0195,0.0195,0.0195,0.0195,0.0254,0.0255,0.0257,0,0,0,0,0,0,0,0,0,0,0,0,0,0.0054,0.0054,0.0083,0.0083,0.0084,0.0146,0.0148,0.0149,0.0195,0.0195,0.0195,0.0195,0.0254,0.0255,0.0257,0,0,0,0,0,0,0,0,0,0,0,0,0,0.0088,0.0054,0.0082,0.0113,0.0116,0.0146,0.0148,0.0149,0.0195,0.0195,0.0195,0.0196,0.0253,0.0255,0.0257,0.0263,0,0,0.0263,0.0264,0,0,0,0,0,0,0,0,0.0086,0.0089,0.0108,0.0111,0.0115,0.0162,0.0159,0.0186,0.0194,0.0167,0.0195,0.0196,0.0221,0.0226,0.024,0.0265,0.0268,0.0263,0.0265,0.0266,0.0266,0,0,0,0,0,0,0,0.0084,0.0087,0.011,0.0109,0.0113,0.0142,0.0147,0.0165,0.0192,0.0169,0.0172,0.0177,0.0223,0.0238,0.0241,0.0269,0.0263,0.0265,0.0266,0.0267,0.0307,0.0307,0,0,0,0,0,0,0.0069,0.0084,0.0108,0.0111,0.0099,0.0142,0.0147,0.0148,0.0192,0.0199,0.0176,0.0178,0.0234,0.0239,0.0244,0.0243,0.0266,0.0267,0.0269,0.0307,0.0307,0.0307,0,0,0,0,0,0,0.0068,0.007,0.0105,0.0099,0.0105,0.0141,0.0141,0.0149,0.0163,0.0198,0.0205,0.0182,0.0235,0.0241,0.0261,0.0246,0.0268,0.027,0.0307,0.0307,0.0307,0.0247,0,0,0,0,0,0,0.0067,0.0069,0.0066,0.0097,0.0104,0.0114,0.0141,0.0149,0.0164,0.0167,0.0205,0.0211,0.0235,0.0257,0.0263,0.0249,0.0272,0.0308,0.0307,0.0307,0.0249,0.0245,0.0241,0,0,0,0,0,0.0066,0.0059,0.0065,0.0068,0.0098,0.0113,0.0119,0.0149,0.0164,0.0164,0.0195,0.021,0.0259,0.0259,0.0265,0.0251,0.0308,0.0307,0.0307,0.0251,0.0246,0.0241,0,0,0,0,0,0,0.0052,0.0064,0.0071,0.0071,0.0085,0.012,0.0125,0.0144,0.017,0.0174,0.021,0.0218,0.0227,0.0251,0.025,0.0264,0.0285,0.0286,0.024,0.0236,0.0231,0.0221,0.0273,0,0,0,0,0,0.0044,0.0039,0.0057,0.0058,0.0061,0.0091,0.0102,0.0119,0.0145,0.0157,0.0183,0.0212,0.023,0.0243,0.0262,0.0272,0.0299,0.0268,0.0263,0.026,0.0256,0.0291,0.029,0.0306,0.0306,0.0306,0,0,0.0043,0.0046,0.0047,0.0054,0.0069,0.0063,0.0099,0.0109,0.0108,0.0158,0.0167,0.0195,0.0229,0.0239,0.0245,0.0257,0.0268,0.0259,0.0256,0.0254,0.0291,0.0289,0.0288,0.0305,0.0306,0.0306,0,0,0.0027,0.0036,0.002,0.0023,0.0031,0.0047,0.0044,0.007,0.0086,0.0098,0.0133,0.0155,0.0184,0.0208,0.0224,0.021,0.0242,0.0214,0.0187,0.022,0.0219,0.0219,0.0242,0.0245,0.0215,0.0215,0.0215,0,0.0024,0.0002,0.002,0.0,-0.0002,0.0032,0.0013,0.0033,0.0064,0.0075,0.0091,0.0141,0.0169,0.0186,0.0183,0.0199,0.0223,0.02,0.0214,0.0214,0.0215,0.0239,0.0242,0.0212,0.0212,0.0212,0.0213,0,-0.001,-0.0029,-0.0037,-0.0056,-0.0055,-0.0063,-0.0044,-0.0033,-0.0011,0.0012,0.0035,0.0081,0.0113,0.0122,0.0149,0.0163,0.0179,0.0201,0.0223,0.0209,0.0236,0.0241,0.0208,0.0209,0.021,0.021,0,0,-0.0015,-0.0056,-0.006,-0.0086,-0.0088,-0.0092,-0.0093,-0.0084,-0.008,-0.0044,-0.0033,0.0006,0.004,0.0061,0.0099,0.0131,0.0152,0.0163,0.0166,0.018,0.022,0.0217,0.0222,0.0177,0.0178,0.0178,0.0235,0,-0.0049,-0.0112,-0.0114,-0.016,-0.0191,-0.0166,-0.017,-0.0153,-0.0125,-0.0104,-0.0048,-0.0026,0.0014,0.003,0.0067,0.0135,0.0161,0.0134,0.0238,0.0241,0.0235,0.0226,0.018,0.0238,0.0239,0.024,0.024,0,-0.0086,-0.0127,-0.0191,-0.0229,-0.0237,-0.0253,-0.0253,-0.0249,-0.0205,-0.0181,-0.014,-0.0091,-0.0037,-0.0003,0.01,0.0082,0.014,0.0192,0.0196,0.0217,0.0246,0.0259,0.0249,0.0248,0.0247,0.0247,0.0246,0,-0.0117,-0.0176,-0.0235,-0.0249,-0.0284,-0.0297,-0.0301,-0.0275,-0.0269,-0.0226,-0.0211,-0.0138,-0.0097,-0.0013,0.0098,0.01,0.0212,0.0231,0.0279,0.028,0.0292,0.0292,0.0291,0.0291,0.0291,0.0291,0.029,0,-0.0156,-0.0199,-0.0258,-0.029,-0.0345,-0.0344,-0.037,-0.0358,-0.0332,-0.0324,-0.0253,-0.0222,-0.0097,-0.0012,0.0082,0.0195,0.0202,0.027,0.0294,0.0265,0.0261,0.0295,0.0294,0.0293,0.0292,0.0292,0.0292,0,-0.0182,-0.0219,-0.0294,-0.0351,-0.0367,-0.0406,-0.0425,-0.0433,-0.0403,-0.0388,-0.0375,-0.0279,-0.0164,-0.004,0.0104,0.0172,0.028,0.0314,0.0264,0.0286,0.0327,0.0323,0.037,0.037,0.0371,0.0371,0.0371,0,-0.0198,-0.0245,-0.0345,-0.0389,-0.0418,-0.0465,-0.0486,-0.0474,-0.0472,-0.0416,-0.0406,-0.0301,-0.0223,-0.0021,0.0105,0.0273,0.0297,0.034,0.0338,0.0316,0.0335,0.0331,0.0326,0.0372,0.0372,0.0372,0.0372,0,-0.0234,-0.028,-0.0348,-0.0441,-0.0491,-0.0536,-0.056,-0.0563,-0.0531,-0.0507,-0.0418,-0.0306,-0.0178,-0.0019,0.011,0.0232,0.0307,0.0344,0.0344,0.0342,0.0319,0.0336,0.0332,0.0373,0.0373,0.0373,0.0373,0,-0.0258,-0.0325,-0.0415,-0.0491,-0.0553,-0.0587,-0.0597,-0.0577,-0.0565,-0.0489,-0.046,-0.0311,-0.0222,-0.0041,0.0081,0.0198,0.0228,0.0256,0.0261,0.0261,0.0215,0.0168,0.0193,0,0,0,0,0,-0.0278,-0.036,-0.0445,-0.0536,-0.059,-0.0616,-0.0634,-0.0626,-0.0592,-0.0534,-0.0491,-0.0365,-0.0166,-0.0077,0.0041,0.0074,0.0233,0.0213,0.0264,0.0379,0.0378,0.0341,0,0,0,0,0,0,-0.0296,-0.0396,-0.0458,-0.0543,-0.0595,-0.0645,-0.0655,-0.0634,-0.0586,-0.0535,-0.0423,-0.0352,-0.0156,-0.0233,0.0039,0.0075,0.0119,0.0313,0.0315,0.038,0.0379,0.0378,0.0339,0,0,0,0,0]}]]